Year,Month,Day,Hour,Minute,Value (Times are PST for insolation in W/m^2)
2020,02,28,00,00,0.00
2020,02,28,00,01,0.00
2020,02,28,00,02,0.00
2020,02,28,00,03,0.00
2020,02,28,00,04,0.00
2020,02,28,00,05,0.00
2020,02,28,00,06,0.00
2020,02,28,00,07,0.00
2020,02,28,00,08,0.00
2020,02,28,00,09,0.00
2020,02,28,00,10,0.00
2020,02,28,00,11,0.00
2020,02,28,00,12,0.00
2020,02,28,00,13,0.00
2020,02,28,00,14,0.00
2020,02,28,00,15,0.00
2020,02,28,00,16,0.00
2020,02,28,00,17,0.00
2020,02,28,00,18,0.00
2020,02,28,00,19,0.00
2020,02,28,00,20,0.00
2020,02,28,00,21,0.00
2020,02,28,00,22,0.00
2020,02,28,00,23,0.00
2020,02,28,00,24,0.00
2020,02,28,00,25,0.00
2020,02,28,00,26,0.00
2020,02,28,00,27,0.00
2020,02,28,00,28,0.00
2020,02,28,00,29,0.00
2020,02,28,00,30,0.00
2020,02,28,00,31,0.00
2020,02,28,00,32,0.00
2020,02,28,00,33,0.00
2020,02,28,00,34,0.00
2020,02,28,00,35,0.00
2020,02,28,00,36,0.00
2020,02,28,00,37,0.00
2020,02,28,00,38,0.00
2020,02,28,00,39,0.00
2020,02,28,00,40,0.00
2020,02,28,00,41,0.00
2020,02,28,00,42,0.00
2020,02,28,00,43,0.00
2020,02,28,00,44,0.00
2020,02,28,00,45,0.00
2020,02,28,00,46,0.00
2020,02,28,00,47,0.00
2020,02,28,00,48,0.00
2020,02,28,00,49,0.00
2020,02,28,00,50,0.00
2020,02,28,00,51,0.00
2020,02,28,00,52,0.00
2020,02,28,00,53,0.00
2020,02,28,00,54,0.00
2020,02,28,00,55,0.00
2020,02,28,00,56,0.00
2020,02,28,00,57,0.00
2020,02,28,00,58,0.00
2020,02,28,00,59,0.00
2020,02,28,01,00,0.00
2020,02,28,01,01,0.00
2020,02,28,01,02,0.00
2020,02,28,01,03,0.00
2020,02,28,01,04,0.00
2020,02,28,01,05,0.00
2020,02,28,01,06,0.00
2020,02,28,01,07,0.00
2020,02,28,01,08,0.00
2020,02,28,01,09,0.00
2020,02,28,01,10,0.00
2020,02,28,01,11,0.00
2020,02,28,01,12,0.00
2020,02,28,01,13,0.00
2020,02,28,01,14,0.00
2020,02,28,01,15,0.00
2020,02,28,01,16,0.00
2020,02,28,01,17,0.00
2020,02,28,01,18,0.00
2020,02,28,01,19,0.00
2020,02,28,01,20,0.00
2020,02,28,01,21,0.00
2020,02,28,01,22,0.00
2020,02,28,01,23,0.00
2020,02,28,01,24,0.00
2020,02,28,01,25,0.00
2020,02,28,01,26,0.00
2020,02,28,01,27,0.00
2020,02,28,01,28,0.00
2020,02,28,01,29,0.00
2020,02,28,01,30,0.00
2020,02,28,01,31,0.00
2020,02,28,01,32,0.00
2020,02,28,01,33,0.00
2020,02,28,01,34,0.00
2020,02,28,01,35,0.00
2020,02,28,01,36,0.00
2020,02,28,01,37,0.00
2020,02,28,01,38,0.00
2020,02,28,01,39,0.00
2020,02,28,01,40,0.00
2020,02,28,01,41,0.00
2020,02,28,01,42,0.00
2020,02,28,01,43,0.00
2020,02,28,01,44,0.00
2020,02,28,01,45,0.00
2020,02,28,01,46,0.00
2020,02,28,01,47,0.00
2020,02,28,01,48,0.00
2020,02,28,01,49,0.00
2020,02,28,01,50,0.00
2020,02,28,01,51,0.00
2020,02,28,01,52,0.00
2020,02,28,01,53,0.00
2020,02,28,01,54,0.00
2020,02,28,01,55,0.00
2020,02,28,01,56,0.00
2020,02,28,01,57,0.00
2020,02,28,01,58,0.00
2020,02,28,01,59,0.00
2020,02,28,02,00,0.00
2020,02,28,02,01,0.00
2020,02,28,02,02,0.00
2020,02,28,02,03,0.00
2020,02,28,02,04,0.00
2020,02,28,02,05,0.00
2020,02,28,02,06,0.00
2020,02,28,02,07,0.00
2020,02,28,02,08,0.00
2020,02,28,02,09,0.00
2020,02,28,02,10,0.00
2020,02,28,02,11,0.00
2020,02,28,02,12,0.00
2020,02,28,02,13,0.00
2020,02,28,02,14,0.00
2020,02,28,02,15,0.00
2020,02,28,02,16,0.00
2020,02,28,02,17,0.00
2020,02,28,02,18,0.00
2020,02,28,02,19,0.00
2020,02,28,02,20,0.00
2020,02,28,02,21,0.00
2020,02,28,02,22,0.00
2020,02,28,02,23,0.00
2020,02,28,02,24,0.00
2020,02,28,02,25,0.00
2020,02,28,02,26,0.00
2020,02,28,02,27,0.00
2020,02,28,02,28,0.00
2020,02,28,02,29,0.00
2020,02,28,02,30,0.00
2020,02,28,02,31,0.00
2020,02,28,02,32,0.00
2020,02,28,02,33,0.00
2020,02,28,02,34,0.00
2020,02,28,02,35,0.00
2020,02,28,02,36,0.00
2020,02,28,02,37,0.00
2020,02,28,02,38,0.00
2020,02,28,02,39,0.00
2020,02,28,02,40,0.00
2020,02,28,02,41,0.00
2020,02,28,02,42,0.00
2020,02,28,02,43,0.00
2020,02,28,02,44,0.00
2020,02,28,02,45,0.00
2020,02,28,02,46,0.00
2020,02,28,02,47,0.00
2020,02,28,02,48,0.00
2020,02,28,02,49,0.00
2020,02,28,02,50,0.00
2020,02,28,02,51,0.00
2020,02,28,02,52,0.00
2020,02,28,02,53,0.00
2020,02,28,02,54,0.00
2020,02,28,02,55,0.00
2020,02,28,02,56,0.00
2020,02,28,02,57,0.00
2020,02,28,02,58,0.00
2020,02,28,02,59,0.00
2020,02,28,03,00,0.00
2020,02,28,03,01,0.00
2020,02,28,03,02,0.00
2020,02,28,03,03,0.00
2020,02,28,03,04,0.00
2020,02,28,03,05,0.00
2020,02,28,03,06,0.00
2020,02,28,03,07,0.00
2020,02,28,03,08,0.00
2020,02,28,03,09,0.00
2020,02,28,03,10,0.00
2020,02,28,03,11,0.00
2020,02,28,03,12,0.00
2020,02,28,03,13,0.00
2020,02,28,03,14,0.00
2020,02,28,03,15,0.00
2020,02,28,03,16,0.00
2020,02,28,03,17,0.00
2020,02,28,03,18,0.00
2020,02,28,03,19,0.00
2020,02,28,03,20,0.00
2020,02,28,03,21,0.00
2020,02,28,03,22,0.00
2020,02,28,03,23,0.00
2020,02,28,03,24,0.00
2020,02,28,03,25,0.00
2020,02,28,03,26,0.00
2020,02,28,03,27,0.00
2020,02,28,03,28,0.00
2020,02,28,03,29,0.00
2020,02,28,03,30,0.00
2020,02,28,03,31,0.00
2020,02,28,03,32,0.00
2020,02,28,03,33,0.00
2020,02,28,03,34,0.00
2020,02,28,03,35,0.00
2020,02,28,03,36,0.00
2020,02,28,03,37,0.00
2020,02,28,03,38,0.00
2020,02,28,03,39,0.00
2020,02,28,03,40,0.00
2020,02,28,03,41,0.00
2020,02,28,03,42,0.00
2020,02,28,03,43,0.00
2020,02,28,03,44,0.00
2020,02,28,03,45,0.00
2020,02,28,03,46,0.00
2020,02,28,03,47,0.00
2020,02,28,03,48,0.00
2020,02,28,03,49,0.00
2020,02,28,03,50,0.00
2020,02,28,03,51,0.00
2020,02,28,03,52,0.00
2020,02,28,03,53,0.00
2020,02,28,03,54,0.00
2020,02,28,03,55,0.00
2020,02,28,03,56,0.00
2020,02,28,03,57,0.00
2020,02,28,03,58,0.00
2020,02,28,03,59,0.00
2020,02,28,04,00,0.00
2020,02,28,04,01,0.00
2020,02,28,04,02,0.00
2020,02,28,04,03,0.00
2020,02,28,04,04,0.00
2020,02,28,04,05,0.00
2020,02,28,04,06,0.00
2020,02,28,04,07,0.00
2020,02,28,04,08,0.00
2020,02,28,04,09,0.00
2020,02,28,04,10,0.00
2020,02,28,04,11,0.00
2020,02,28,04,12,0.00
2020,02,28,04,13,0.00
2020,02,28,04,14,0.00
2020,02,28,04,15,0.00
2020,02,28,04,16,0.00
2020,02,28,04,17,0.00
2020,02,28,04,18,0.00
2020,02,28,04,19,0.00
2020,02,28,04,20,0.00
2020,02,28,04,21,0.00
2020,02,28,04,22,0.00
2020,02,28,04,23,0.00
2020,02,28,04,24,0.00
2020,02,28,04,25,0.00
2020,02,28,04,26,0.00
2020,02,28,04,27,0.00
2020,02,28,04,28,0.00
2020,02,28,04,29,0.00
2020,02,28,04,30,0.00
2020,02,28,04,31,0.00
2020,02,28,04,32,0.00
2020,02,28,04,33,0.00
2020,02,28,04,34,0.00
2020,02,28,04,35,0.00
2020,02,28,04,36,0.00
2020,02,28,04,37,0.00
2020,02,28,04,38,0.00
2020,02,28,04,39,0.00
2020,02,28,04,40,0.00
2020,02,28,04,41,0.00
2020,02,28,04,42,0.00
2020,02,28,04,43,0.00
2020,02,28,04,44,0.00
2020,02,28,04,45,0.00
2020,02,28,04,46,0.00
2020,02,28,04,47,0.00
2020,02,28,04,48,0.00
2020,02,28,04,49,0.00
2020,02,28,04,50,0.00
2020,02,28,04,51,0.00
2020,02,28,04,52,0.00
2020,02,28,04,53,0.00
2020,02,28,04,54,0.00
2020,02,28,04,55,0.00
2020,02,28,04,56,0.00
2020,02,28,04,57,0.00
2020,02,28,04,58,0.00
2020,02,28,04,59,0.00
2020,02,28,05,00,0.00
2020,02,28,05,01,0.00
2020,02,28,05,02,0.00
2020,02,28,05,03,0.00
2020,02,28,05,04,0.00
2020,02,28,05,05,0.00
2020,02,28,05,06,0.00
2020,02,28,05,07,0.00
2020,02,28,05,08,0.00
2020,02,28,05,09,0.00
2020,02,28,05,10,0.00
2020,02,28,05,11,0.00
2020,02,28,05,12,0.00
2020,02,28,05,13,0.00
2020,02,28,05,14,0.00
2020,02,28,05,15,0.00
2020,02,28,05,16,0.00
2020,02,28,05,17,0.00
2020,02,28,05,18,0.00
2020,02,28,05,19,0.00
2020,02,28,05,20,0.00
2020,02,28,05,21,0.00
2020,02,28,05,22,0.00
2020,02,28,05,23,0.00
2020,02,28,05,24,0.00
2020,02,28,05,25,0.00
2020,02,28,05,26,0.00
2020,02,28,05,27,0.00
2020,02,28,05,28,0.00
2020,02,28,05,29,0.00
2020,02,28,05,30,0.00
2020,02,28,05,31,0.00
2020,02,28,05,32,0.00
2020,02,28,05,33,0.00
2020,02,28,05,34,0.00
2020,02,28,05,35,0.00
2020,02,28,05,36,0.00
2020,02,28,05,37,0.00
2020,02,28,05,38,0.00
2020,02,28,05,39,0.00
2020,02,28,05,40,0.00
2020,02,28,05,41,0.00
2020,02,28,05,42,0.00
2020,02,28,05,43,0.00
2020,02,28,05,44,0.00
2020,02,28,05,45,0.00
2020,02,28,05,46,0.00
2020,02,28,05,47,0.00
2020,02,28,05,48,0.00
2020,02,28,05,49,0.00
2020,02,28,05,50,0.00
2020,02,28,05,51,0.00
2020,02,28,05,52,0.00
2020,02,28,05,53,0.00
2020,02,28,05,54,0.00
2020,02,28,05,55,0.00
2020,02,28,05,56,0.00
2020,02,28,05,57,0.00
2020,02,28,05,58,0.00
2020,02,28,05,59,0.00
2020,02,28,06,00,0.00
2020,02,28,06,01,0.00
2020,02,28,06,02,0.00
2020,02,28,06,03,0.00
2020,02,28,06,04,0.00
2020,02,28,06,05,0.00
2020,02,28,06,06,0.00
2020,02,28,06,07,0.00
2020,02,28,06,08,0.00
2020,02,28,06,09,0.00
2020,02,28,06,10,0.00
2020,02,28,06,11,0.00
2020,02,28,06,12,0.00
2020,02,28,06,13,0.00
2020,02,28,06,14,0.00
2020,02,28,06,15,0.00
2020,02,28,06,16,0.00
2020,02,28,06,17,0.00
2020,02,28,06,18,0.00
2020,02,28,06,19,0.00
2020,02,28,06,20,0.00
2020,02,28,06,21,0.00
2020,02,28,06,22,0.00
2020,02,28,06,23,0.00
2020,02,28,06,24,0.00
2020,02,28,06,25,0.00
2020,02,28,06,26,0.00
2020,02,28,06,27,0.00
2020,02,28,06,28,0.00
2020,02,28,06,29,0.00
2020,02,28,06,30,0.00
2020,02,28,06,31,0.00
2020,02,28,06,32,0.00
2020,02,28,06,33,0.00
2020,02,28,06,34,0.00
2020,02,28,06,35,0.00
2020,02,28,06,36,0.00
2020,02,28,06,37,0.00
2020,02,28,06,38,0.00
2020,02,28,06,39,0.00
2020,02,28,06,40,0.00
2020,02,28,06,41,0.00
2020,02,28,06,42,0.00
2020,02,28,06,43,0.00
2020,02,28,06,44,0.00
2020,02,28,06,45,0.00
2020,02,28,06,46,0.00
2020,02,28,06,47,0.00
2020,02,28,06,48,0.00
2020,02,28,06,49,0.00
2020,02,28,06,50,0.00
2020,02,28,06,51,0.00
2020,02,28,06,52,0.00
2020,02,28,06,53,0.00
2020,02,28,06,54,0.00
2020,02,28,06,55,0.00
2020,02,28,06,56,0.00
2020,02,28,06,57,0.00
2020,02,28,06,58,0.00
2020,02,28,06,59,0.00
2020,02,28,07,00,0.00
2020,02,28,07,01,0.00
2020,02,28,07,02,0.00
2020,02,28,07,03,0.00
2020,02,28,07,04,0.00
2020,02,28,07,05,0.00
2020,02,28,07,06,0.00
2020,02,28,07,07,0.00
2020,02,28,07,08,0.00
2020,02,28,07,09,0.00
2020,02,28,07,10,0.00
2020,02,28,07,11,0.00
2020,02,28,07,12,0.00
2020,02,28,07,13,0.00
2020,02,28,07,14,0.00
2020,02,28,07,15,0.00
2020,02,28,07,16,0.00
2020,02,28,07,17,0.00
2020,02,28,07,18,0.00
2020,02,28,07,19,0.00
2020,02,28,07,20,0.00
2020,02,28,07,21,0.00
2020,02,28,07,22,0.00
2020,02,28,07,23,4.30
2020,02,28,07,24,5.00
2020,02,28,07,25,5.00
2020,02,28,07,26,5.00
2020,02,28,07,27,6.00
2020,02,28,07,28,7.00
2020,02,28,07,29,7.00
2020,02,28,07,30,7.00
2020,02,28,07,31,7.00
2020,02,28,07,32,7.00
2020,02,28,07,33,7.70
2020,02,28,07,34,9.00
2020,02,28,07,35,9.00
2020,02,28,07,36,10.50
2020,02,28,07,37,11.90
2020,02,28,07,38,12.00
2020,02,28,07,39,12.40
2020,02,28,07,40,14.70
2020,02,28,07,41,17.00
2020,02,28,07,42,18.00
2020,02,28,07,43,13.60
2020,02,28,07,44,12.00
2020,02,28,07,45,16.30
2020,02,28,07,46,19.00
2020,02,28,07,47,18.60
2020,02,28,07,48,18.00
2020,02,28,07,49,18.00
2020,02,28,07,50,20.30
2020,02,28,07,51,24.40
2020,02,28,07,52,25.90
2020,02,28,07,53,24.50
2020,02,28,07,54,22.30
2020,02,28,07,55,20.00
2020,02,28,07,56,18.40
2020,02,28,07,57,18.70
2020,02,28,07,58,20.70
2020,02,28,07,59,20.30
2020,02,28,08,00,15.10
2020,02,28,08,01,12.70
2020,02,28,08,02,17.40
2020,02,28,08,03,22.30
2020,02,28,08,04,21.50
2020,02,28,08,05,19.30
2020,02,28,08,06,18.90
2020,02,28,08,07,18.00
2020,02,28,08,08,18.00
2020,02,28,08,09,18.50
2020,02,28,08,10,19.00
2020,02,28,08,11,20.50
2020,02,28,08,12,18.40
2020,02,28,08,13,17.80
2020,02,28,08,14,16.00
2020,02,28,08,15,16.00
2020,02,28,08,16,17.00
2020,02,28,08,17,18.00
2020,02,28,08,18,18.80
2020,02,28,08,19,16.40
2020,02,28,08,20,18.10
2020,02,28,08,21,20.60
2020,02,28,08,22,26.00
2020,02,28,08,23,27.00
2020,02,28,08,24,31.10
2020,02,28,08,25,29.20
2020,02,28,08,26,26.30
2020,02,28,08,27,22.70
2020,02,28,08,28,21.00
2020,02,28,08,29,21.00
2020,02,28,08,30,20.00
2020,02,28,08,31,18.40
2020,02,28,08,32,16.50
2020,02,28,08,33,18.70
2020,02,28,08,34,19.00
2020,02,28,08,35,20.00
2020,02,28,08,36,24.20
2020,02,28,08,37,27.90
2020,02,28,08,38,28.70
2020,02,28,08,39,28.00
2020,02,28,08,40,28.00
2020,02,28,08,41,26.30
2020,02,28,08,42,29.60
2020,02,28,08,43,36.50
2020,02,28,08,44,39.00
2020,02,28,08,45,36.50
2020,02,28,08,46,35.00
2020,02,28,08,47,30.70
2020,02,28,08,48,32.10
2020,02,28,08,49,33.50
2020,02,28,08,50,35.00
2020,02,28,08,51,32.60
2020,02,28,08,52,28.70
2020,02,28,08,53,26.50
2020,02,28,08,54,27.70
2020,02,28,08,55,32.30
2020,02,28,08,56,28.50
2020,02,28,08,57,28.50
2020,02,28,08,58,26.00
2020,02,28,08,59,26.00
2020,02,28,09,00,26.00
2020,02,28,09,01,26.00
2020,02,28,09,02,23.20
2020,02,28,09,03,25.00
2020,02,28,09,04,25.40
2020,02,28,09,05,25.50
2020,02,28,09,06,25.00
2020,02,28,09,07,23.50
2020,02,28,09,08,23.00
2020,02,28,09,09,26.20
2020,02,28,09,10,28.50
2020,02,28,09,11,31.10
2020,02,28,09,12,30.50
2020,02,28,09,13,30.40
2020,02,28,09,14,32.80
2020,02,28,09,15,33.00
2020,02,28,09,16,36.00
2020,02,28,09,17,43.20
2020,02,28,09,18,45.10
2020,02,28,09,19,41.00
2020,02,28,09,20,39.40
2020,02,28,09,21,33.60
2020,02,28,09,22,30.30
2020,02,28,09,23,34.60
2020,02,28,09,24,44.50
2020,02,28,09,25,46.40
2020,02,28,09,26,50.00
2020,02,28,09,27,53.60
2020,02,28,09,28,48.80
2020,02,28,09,29,46.10
2020,02,28,09,30,53.70
2020,02,28,09,31,58.50
2020,02,28,09,32,60.00
2020,02,28,09,33,60.00
2020,02,28,09,34,60.00
2020,02,28,09,35,57.00
2020,02,28,09,36,63.70
2020,02,28,09,37,73.30
2020,02,28,09,38,100.00
2020,02,28,09,39,103.50
2020,02,28,09,40,111.40
2020,02,28,09,41,102.00
2020,02,28,09,42,80.90
2020,02,28,09,43,82.20
2020,02,28,09,44,78.00
2020,02,28,09,45,85.20
2020,02,28,09,46,80.80
2020,02,28,09,47,80.00
2020,02,28,09,48,79.40
2020,02,28,09,49,69.60
2020,02,28,09,50,67.00
2020,02,28,09,51,62.70
2020,02,28,09,52,66.50
2020,02,28,09,53,65.00
2020,02,28,09,54,60.50
2020,02,28,09,55,65.50
2020,02,28,09,56,69.80
2020,02,28,09,57,79.20
2020,02,28,09,58,76.70
2020,02,28,09,59,83.80
2020,02,28,10,00,96.30
2020,02,28,10,01,103.00
2020,02,28,10,02,98.70
2020,02,28,10,03,95.00
2020,02,28,10,04,96.70
2020,02,28,10,05,103.00
2020,02,28,10,06,109.50
2020,02,28,10,07,106.90
2020,02,28,10,08,95.00
2020,02,28,10,09,86.40
2020,02,28,10,10,92.10
2020,02,28,10,11,101.00
2020,02,28,10,12,83.70
2020,02,28,10,13,88.50
2020,02,28,10,14,106.90
2020,02,28,10,15,101.00
2020,02,28,10,16,108.50
2020,02,28,10,17,113.70
2020,02,28,10,18,121.70
2020,02,28,10,19,134.30
2020,02,28,10,20,136.20
2020,02,28,10,21,131.80
2020,02,28,10,22,124.40
2020,02,28,10,23,114.80
2020,02,28,10,24,102.90
2020,02,28,10,25,92.30
2020,02,28,10,26,92.70
2020,02,28,10,27,91.10
2020,02,28,10,28,94.30
2020,02,28,10,29,92.00
2020,02,28,10,30,93.50
2020,02,28,10,31,93.40
2020,02,28,10,32,99.20
2020,02,28,10,33,111.70
2020,02,28,10,34,116.00
2020,02,28,10,35,113.40
2020,02,28,10,36,111.40
2020,02,28,10,37,114.00
2020,02,28,10,38,114.00
2020,02,28,10,39,109.70
2020,02,28,10,40,130.00
2020,02,28,10,41,126.40
2020,02,28,10,42,108.80
2020,02,28,10,43,109.60
2020,02,28,10,44,128.30
2020,02,28,10,45,139.20
2020,02,28,10,46,135.90
2020,02,28,10,47,143.40
2020,02,28,10,48,141.00
2020,02,28,10,49,151.00
2020,02,28,10,50,157.00
2020,02,28,10,51,158.00
2020,02,28,10,52,146.10
2020,02,28,10,53,127.50
2020,02,28,10,54,120.60
2020,02,28,10,55,106.50
2020,02,28,10,56,103.80
2020,02,28,10,57,98.60
2020,02,28,10,58,98.00
2020,02,28,10,59,98.50
2020,02,28,11,00,90.90
2020,02,28,11,01,82.80
2020,02,28,11,02,82.30
2020,02,28,11,03,84.80
2020,02,28,11,04,79.60
2020,02,28,11,05,76.00
2020,02,28,11,06,71.60
2020,02,28,11,07,75.30
2020,02,28,11,08,79.00
2020,02,28,11,09,90.30
2020,02,28,11,10,73.30
2020,02,28,11,11,72.00
2020,02,28,11,12,75.20
2020,02,28,11,13,70.30
2020,02,28,11,14,69.90
2020,02,28,11,15,82.30
2020,02,28,11,16,87.70
2020,02,28,11,17,81.80
2020,02,28,11,18,83.50
2020,02,28,11,19,96.40
2020,02,28,11,20,101.30
2020,02,28,11,21,97.40
2020,02,28,11,22,125.80
2020,02,28,11,23,134.30
2020,02,28,11,24,141.00
2020,02,28,11,25,134.70
2020,02,28,11,26,122.10
2020,02,28,11,27,135.80
2020,02,28,11,28,142.00
2020,02,28,11,29,140.60
2020,02,28,11,30,130.80
2020,02,28,11,31,114.20
2020,02,28,11,32,132.90
2020,02,28,11,33,140.10
2020,02,28,11,34,153.10
2020,02,28,11,35,150.00
2020,02,28,11,36,131.20
2020,02,28,11,37,122.10
2020,02,28,11,38,112.10
2020,02,28,11,39,104.50
2020,02,28,11,40,108.30
2020,02,28,11,41,115.50
2020,02,28,11,42,111.70
2020,02,28,11,43,104.70
2020,02,28,11,44,99.10
2020,02,28,11,45,91.80
2020,02,28,11,46,98.80
2020,02,28,11,47,110.70
2020,02,28,11,48,115.50
2020,02,28,11,49,113.40
2020,02,28,11,50,105.00
2020,02,28,11,51,105.50
2020,02,28,11,52,108.50
2020,02,28,11,53,113.40
2020,02,28,11,54,119.00
2020,02,28,11,55,126.20
2020,02,28,11,56,133.10
2020,02,28,11,57,142.80
2020,02,28,11,58,150.60
2020,02,28,11,59,156.90
2020,02,28,12,00,162.40
2020,02,28,12,01,166.30
2020,02,28,12,02,167.00
2020,02,28,12,03,163.60
2020,02,28,12,04,155.40
2020,02,28,12,05,149.70
2020,02,28,12,06,144.50
2020,02,28,12,07,141.50
2020,02,28,12,08,141.60
2020,02,28,12,09,142.00
2020,02,28,12,10,148.20
2020,02,28,12,11,152.70
2020,02,28,12,12,150.20
2020,02,28,12,13,146.50
2020,02,28,12,14,143.00
2020,02,28,12,15,142.00
2020,02,28,12,16,142.00
2020,02,28,12,17,141.10
2020,02,28,12,18,138.60
2020,02,28,12,19,134.70
2020,02,28,12,20,134.00
2020,02,28,12,21,135.50
2020,02,28,12,22,140.00
2020,02,28,12,23,147.20
2020,02,28,12,24,154.30
2020,02,28,12,25,163.90
2020,02,28,12,26,177.10
2020,02,28,12,27,189.80
2020,02,28,12,28,198.40
2020,02,28,12,29,200.00
2020,02,28,12,30,197.80
2020,02,28,12,31,191.00
2020,02,28,12,32,180.20
2020,02,28,12,33,172.40
2020,02,28,12,34,165.10
2020,02,28,12,35,159.10
2020,02,28,12,36,154.10
2020,02,28,12,37,149.30
2020,02,28,12,38,142.70
2020,02,28,12,39,141.00
2020,02,28,12,40,140.50
2020,02,28,12,41,139.00
2020,02,28,12,42,138.00
2020,02,28,12,43,137.00
2020,02,28,12,44,137.00
2020,02,28,12,45,138.70
2020,02,28,12,46,139.30
2020,02,28,12,47,142.40
2020,02,28,12,48,145.50
2020,02,28,12,49,148.50
2020,02,28,12,50,151.50
2020,02,28,12,51,154.50
2020,02,28,12,52,155.00
2020,02,28,12,53,158.10
2020,02,28,12,54,160.00
2020,02,28,12,55,159.30
2020,02,28,12,56,157.00
2020,02,28,12,57,155.40
2020,02,28,12,58,152.10
2020,02,28,12,59,148.40
2020,02,28,13,00,143.40
2020,02,28,13,01,138.10
2020,02,28,13,02,133.90
2020,02,28,13,03,129.60
2020,02,28,13,04,125.70
2020,02,28,13,05,123.50
2020,02,28,13,06,121.30
2020,02,28,13,07,121.20
2020,02,28,13,08,123.50
2020,02,28,13,09,124.30
2020,02,28,13,10,123.00
2020,02,28,13,11,121.10
2020,02,28,13,12,118.50
2020,02,28,13,13,114.60
2020,02,28,13,14,110.80
2020,02,28,13,15,108.50
2020,02,28,13,16,107.00
2020,02,28,13,17,107.00
2020,02,28,13,18,108.30
2020,02,28,13,19,109.00
2020,02,28,13,20,110.70
2020,02,28,13,21,113.10
2020,02,28,13,22,114.50
2020,02,28,13,23,116.00
2020,02,28,13,24,116.00
2020,02,28,13,25,114.70
2020,02,28,13,26,111.80
2020,02,28,13,27,107.60
2020,02,28,13,28,104.70
2020,02,28,13,29,101.10
2020,02,28,13,30,97.60
2020,02,28,13,31,97.00
2020,02,28,13,32,95.70
2020,02,28,13,33,95.00
2020,02,28,13,34,95.00
2020,02,28,13,35,92.70
2020,02,28,13,36,90.70
2020,02,28,13,37,88.50
2020,02,28,13,38,85.00
2020,02,28,13,39,82.20
2020,02,28,13,40,79.50
2020,02,28,13,41,76.40
2020,02,28,13,42,76.70
2020,02,28,13,43,74.00
2020,02,28,13,44,82.90
2020,02,28,13,45,102.30
2020,02,28,13,46,110.80
2020,02,28,13,47,108.60
2020,02,28,13,48,99.00
2020,02,28,13,49,89.80
2020,02,28,13,50,82.50
2020,02,28,13,51,80.30
2020,02,28,13,52,80.00
2020,02,28,13,53,79.80
2020,02,28,13,54,73.80
2020,02,28,13,55,64.30
2020,02,28,13,56,62.10
2020,02,28,13,57,62.30
2020,02,28,13,58,56.70
2020,02,28,13,59,46.30
2020,02,28,14,00,40.20
2020,02,28,14,01,37.50
2020,02,28,14,02,35.30
2020,02,28,14,03,45.00
2020,02,28,14,04,37.60
2020,02,28,14,05,33.70
2020,02,28,14,06,36.00
2020,02,28,14,07,34.50
2020,02,28,14,08,43.40
2020,02,28,14,09,48.80
2020,02,28,14,10,36.40
2020,02,28,14,11,32.30
2020,02,28,14,12,31.90
2020,02,28,14,13,30.00
2020,02,28,14,14,33.10
2020,02,28,14,15,36.50
2020,02,28,14,16,39.70
2020,02,28,14,17,35.00
2020,02,28,14,18,34.20
2020,02,28,14,19,36.60
2020,02,28,14,20,44.00
2020,02,28,14,21,42.80
2020,02,28,14,22,36.80
2020,02,28,14,23,26.50
2020,02,28,14,24,32.70
2020,02,28,14,25,37.50
2020,02,28,14,26,37.50
2020,02,28,14,27,37.10
2020,02,28,14,28,43.30
2020,02,28,14,29,51.90
2020,02,28,14,30,59.10
2020,02,28,14,31,64.30
2020,02,28,14,32,60.70
2020,02,28,14,33,66.30
2020,02,28,14,34,66.80
2020,02,28,14,35,58.30
2020,02,28,14,36,50.80
2020,02,28,14,37,46.40
2020,02,28,14,38,53.60
2020,02,28,14,39,57.50
2020,02,28,14,40,54.10
2020,02,28,14,41,52.00
2020,02,28,14,42,56.10
2020,02,28,14,43,58.00
2020,02,28,14,44,56.20
2020,02,28,14,45,60.20
2020,02,28,14,46,62.30
2020,02,28,14,47,63.80
2020,02,28,14,48,66.00
2020,02,28,14,49,67.00
2020,02,28,14,50,68.50
2020,02,28,14,51,69.00
2020,02,28,14,52,70.00
2020,02,28,14,53,70.00
2020,02,28,14,54,70.00
2020,02,28,14,55,71.00
2020,02,28,14,56,73.20
2020,02,28,14,57,76.20
2020,02,28,14,58,80.40
2020,02,28,14,59,86.00
2020,02,28,15,00,84.70
2020,02,28,15,01,80.30
2020,02,28,15,02,80.00
2020,02,28,15,03,77.90
2020,02,28,15,04,74.50
2020,02,28,15,05,78.30
2020,02,28,15,06,79.40
2020,02,28,15,07,83.80
2020,02,28,15,08,87.50
2020,02,28,15,09,92.40
2020,02,28,15,10,99.40
2020,02,28,15,11,104.20
2020,02,28,15,12,102.30
2020,02,28,15,13,94.60
2020,02,28,15,14,92.00
2020,02,28,15,15,94.30
2020,02,28,15,16,88.70
2020,02,28,15,17,79.00
2020,02,28,15,18,71.60
2020,02,28,15,19,67.30
2020,02,28,15,20,69.60
2020,02,28,15,21,74.50
2020,02,28,15,22,77.00
2020,02,28,15,23,81.40
2020,02,28,15,24,89.70
2020,02,28,15,25,99.70
2020,02,28,15,26,104.60
2020,02,28,15,27,106.40
2020,02,28,15,28,102.00
2020,02,28,15,29,97.20
2020,02,28,15,30,83.70
2020,02,28,15,31,73.30
2020,02,28,15,32,64.20
2020,02,28,15,33,56.90
2020,02,28,15,34,52.90
2020,02,28,15,35,51.00
2020,02,28,15,36,52.10
2020,02,28,15,37,55.00
2020,02,28,15,38,57.20
2020,02,28,15,39,59.50
2020,02,28,15,40,60.00
2020,02,28,15,41,60.00
2020,02,28,15,42,60.00
2020,02,28,15,43,60.00
2020,02,28,15,44,59.00
2020,02,28,15,45,56.80
2020,02,28,15,46,53.80
2020,02,28,15,47,49.60
2020,02,28,15,48,47.00
2020,02,28,15,49,47.50
2020,02,28,15,50,49.70
2020,02,28,15,51,52.00
2020,02,28,15,52,53.60
2020,02,28,15,53,54.00
2020,02,28,15,54,51.40
2020,02,28,15,55,46.70
2020,02,28,15,56,43.50
2020,02,28,15,57,42.00
2020,02,28,15,58,42.00
2020,02,28,15,59,42.00
2020,02,28,16,00,42.00
2020,02,28,16,01,40.20
2020,02,28,16,02,39.90
2020,02,28,16,03,39.00
2020,02,28,16,04,39.30
2020,02,28,16,05,40.00
2020,02,28,16,06,41.30
2020,02,28,16,07,42.00
2020,02,28,16,08,42.00
2020,02,28,16,09,42.00
2020,02,28,16,10,41.60
2020,02,28,16,11,40.00
2020,02,28,16,12,40.00
2020,02,28,16,13,40.00
2020,02,28,16,14,40.00
2020,02,28,16,15,41.70
2020,02,28,16,16,46.10
2020,02,28,16,17,49.30
2020,02,28,16,18,65.70
2020,02,28,16,19,92.70
2020,02,28,16,20,97.60
2020,02,28,16,21,92.00
2020,02,28,16,22,91.00
2020,02,28,16,23,123.20
2020,02,28,16,24,141.70
2020,02,28,16,25,172.70
2020,02,28,16,26,227.60
2020,02,28,16,27,225.00
2020,02,28,16,28,297.60
2020,02,28,16,29,343.40
2020,02,28,16,30,368.80
2020,02,28,16,31,385.90
2020,02,28,16,32,389.20
2020,02,28,16,33,381.00
2020,02,28,16,34,357.10
2020,02,28,16,35,336.30
2020,02,28,16,36,317.10
2020,02,28,16,37,287.90
2020,02,28,16,38,268.10
2020,02,28,16,39,259.30
2020,02,28,16,40,254.10
2020,02,28,16,41,241.80
2020,02,28,16,42,219.20
2020,02,28,16,43,164.10
2020,02,28,16,44,136.40
2020,02,28,16,45,132.00
2020,02,28,16,46,132.00
2020,02,28,16,47,128.60
2020,02,28,16,48,123.70
2020,02,28,16,49,126.70
2020,02,28,16,50,123.60
2020,02,28,16,51,116.20
2020,02,28,16,52,98.90
2020,02,28,16,53,90.40
2020,02,28,16,54,93.90
2020,02,28,16,55,93.20
2020,02,28,16,56,85.10
2020,02,28,16,57,73.20
2020,02,28,16,58,68.70
2020,02,28,16,59,67.50
2020,02,28,17,00,69.30
2020,02,28,17,01,69.50
2020,02,28,17,02,65.20
2020,02,28,17,03,59.30
2020,02,28,17,04,59.70
2020,02,28,17,05,53.30
2020,02,28,17,06,56.00
2020,02,28,17,07,53.40
2020,02,28,17,08,47.60
2020,02,28,17,09,46.00
2020,02,28,17,10,46.70
2020,02,28,17,11,50.40
2020,02,28,17,12,51.00
2020,02,28,17,13,51.00
2020,02,28,17,14,51.00
2020,02,28,17,15,52.00
2020,02,28,17,16,53.60
2020,02,28,17,17,55.50
2020,02,28,17,18,56.00
2020,02,28,17,19,55.80
2020,02,28,17,20,53.80
2020,02,28,17,21,52.30
2020,02,28,17,22,50.00
2020,02,28,17,23,49.00
2020,02,28,17,24,46.80
2020,02,28,17,25,44.30
2020,02,28,17,26,41.90
2020,02,28,17,27,39.30
2020,02,28,17,28,36.30
2020,02,28,17,29,34.00
2020,02,28,17,30,32.40